Waarnemingen

Advertentie
Mijn weer
Brest, Frankrijk (7110): temperatuur & dauwpunt: 14.10.2017 09:00:00 - 20.10.2017 09:00:00 (CEST)Brest, Frankrijk (7110): temperatuur 5cm: 14.10.2017 09:00:00 - 20.10.2017 09:00:00 (CEST)Brest, Frankrijk (7110): temperatuur -20cm & temperatuur -100cm: 14.10.2017 09:00:00 - 20.10.2017 09:00:00 (CEST)Brest, Frankrijk (7110): windsnelheid & windstoten: 14.10.2017 09:00:00 - 20.10.2017 09:00:00 (CEST)Brest, Frankrijk (7110): windrichting: 14.10.2017 09:00:00 - 20.10.2017 09:00:00 (CEST)Brest, Frankrijk (7110): luchtdruk: 14.10.2017 09:00:00 - 20.10.2017 09:00:00 (CEST)Brest, Frankrijk (7110): zicht: 14.10.2017 09:00:00 - 20.10.2017 09:00:00 (CEST)Brest, Frankrijk (7110): Zonneschijnduur: 14.10.2017 09:00:00 - 20.10.2017 09:00:00 (CEST)Brest, Frankrijk (7110): neerslag: 14.10.2017 09:00:00 - 20.10.2017 09:00:00 (CEST)
Datum & Tijd tt [°C] td [°C] tt 5cm [°C] tt -20cm [°C] tt -100cm [°C] ff [km/u] ff [kn] fx [km/u] fx [kn] dd ppp [hPa] vv [km] sd [min] rr [mm]
20.10.2017 09:00:00 - - - - - - - - - - - - - -
20.10.2017 08:00:00 9,8 7,6 7,0 13,9 15,1 9 5 16 9 ZW 1011,1 28 0 0,0
20.10.2017 07:00:00 10,3 7,9 8,0 14,0 15,1 11 6 26 14 WZW 1010,9 29 0 0,0
20.10.2017 06:00:00 10,2 8,1 7,6 14,0 15,1 13 7 24 13 WZW 1010,2 27 0 0,0
20.10.2017 05:00:00 9,9 7,8 8,0 14,1 15,1 13 7 24 13 WZW 1009,8 10 0 0,0
20.10.2017 04:00:00 10,3 7,9 8,6 14,1 15,1 14 8 29 16 W 1009,3 27 0 0,0
20.10.2017 03:00:00 10,5 8,3 8,8 14,2 15,1 16 9 32 17 W 1008,6 10 0 0,0
20.10.2017 02:00:00 11,1 8,1 9,1 14,3 15,1 18 10 39 21 W 1007,9 27 0 0,0
20.10.2017 01:00:00 11,0 9,1 9,3 14,3 15,1 20 11 34 19 W 1007,2 20 0 0,4
20.10.2017 00:00:00 11,4 8,6 10,0 14,3 15,2 22 12 40 21 W 1006,4 10 0 0,0
19.10.2017 23:00:00 11,4 9,0 9,8 14,3 15,1 19 10 38 21 W 1005,5 19 0 0,0
19.10.2017 22:00:00 11,5 9,4 9,8 14,3 15,1 14 8 37 20 W 1004,5 17 0 0,0
19.10.2017 21:00:00 11,7 9,9 10,4 14,3 15,2 18 10 32 17 W 1003,5 18 0 0,0
19.10.2017 20:00:00 12,5 10,7 11,1 14,3 15,1 18 10 40 21 W 1002,2 19 0 0,0
19.10.2017 19:00:00 13,2 11,3 12,2 14,3 15,1 24 13 46 25 W 1000,8 29 10 0,0
19.10.2017 18:00:00 14,2 13,2 13,7 14,2 15,2 22 12 66 36 WZW 999,7 16 0 4,3
19.10.2017 17:00:00 14,7 13,9 14,1 14,2 15,2 40 22 70 38 ZZW 998,7 2,8 0 5,2
19.10.2017 16:00:00 14,3 13,3 14,0 14,2 15,2 39 21 71 39 Z 999,5 2,9 0 8,3
19.10.2017 15:00:00 15,1 12,8 14,3 14,1 15,2 39 21 63 34 Z 1000,9 5 0 0,2
19.10.2017 14:00:00 15,5 13,2 15,1 14,1 15,2 42 23 65 35 Z 1001,9 10 0 0,2
19.10.2017 13:00:00 15,1 13,5 14,6 14,1 15,2 31 17 50 27 Z 1003,1 10 1 0,0
19.10.2017 12:00:00 14,6 14,0 14,0 14,1 15,2 31 17 47 25 Z 1004,0 10 0 0,0
19.10.2017 11:00:00 13,8 13,3 12,6 14,2 15,2 21 11 37 20 Z 1004,6 20 0 0,0
19.10.2017 10:00:00 12,5 12,0 10,8 14,2 15,2 15 8 23 13 Z 1005,0 10 0 0,0
19.10.2017 09:00:00 11,4 11,1 10,0 14,3 15,2 11 6 20 11 Z 1005,0 9 0 0,0
19.10.2017 08:00:00 11,2 10,9 7,0 14,4 15,2 15 8 18 10 Z 1004,7 10 0 0,0
19.10.2017 07:00:00 9,9 9,6 6,5 14,5 15,2 10 6 13 7 Z 1005,5 8 0 0,0
19.10.2017 06:00:00 9,8 9,5 5,3 14,6 15,2 4 2 9 5 ZO 1006,0 0,2 0 0,0
19.10.2017 05:00:00 8,5 8,2 5,0 14,6 15,2 9 5 13 7 WZW 1007,0 8 0 0,0
19.10.2017 04:00:00 9,5 9,0 5,5 14,7 15,2 5 3 10 5 Z 1007,5 15 0 0,0
19.10.2017 03:00:00 9,0 8,5 5,8 14,7 15,2 6 3 10 6 Z 1007,9 10 0 0,0
19.10.2017 02:00:00 10,4 9,8 5,5 14,8 15,2 9 5 11 6 OZO 1007,9 10 0 0,2
19.10.2017 01:00:00 10,8 9,9 6,4 14,8 15,2 9 5 12 6 ONO 1008,7 8 0 0,0
19.10.2017 00:00:00 12,1 11,0 8,2 14,9 15,2 7 4 15 8 ONO 1009,6 11 0 0,0
18.10.2017 23:00:00 12,9 11,6 9,8 14,9 15,2 12 7 18 10 O 1009,7 16 0 0,0
18.10.2017 22:00:00 12,1 11,2 8,1 14,9 15,2 8 4 14 8 NO 1009,8 8 0 0,0
18.10.2017 21:00:00 12,5 11,2 7,9 14,8 15,2 6 4 8 4 N 1010,1 6 0 0,0
18.10.2017 20:00:00 13,5 11,7 8,4 14,7 15,2 5 3 8 5 WNW 1010,1 15 0 0,0
18.10.2017 19:00:00 16,4 12,0 13,4 14,7 15,2 3 2 6 4 ZZW 1009,6 2,6 36 0,0
18.10.2017 18:00:00 17,8 12,0 19,0 14,5 15,2 2 1 10 6 - 1009,6 10 53 0,0
18.10.2017 17:00:00 17,2 12,3 19,0 14,4 15,2 5 3 21 11 ZZW 1009,6 10 19 0,0
18.10.2017 16:00:00 17,8 12,0 21,7 14,3 15,2 11 6 24 13 ZW 1009,7 10 58 0,0
18.10.2017 15:00:00 17,9 12,8 21,7 14,3 15,2 16 9 24 13 ZZW 1010,1 10 45 0,0
18.10.2017 14:00:00 16,7 13,0 17,9 14,3 15,2 11 6 22 12 Z 1010,6 10 34 0,0
18.10.2017 13:00:00 16,7 13,2 17,7 14,3 15,2 13 7 20 11 Z 1010,8 10 51 0,0
18.10.2017 12:00:00 16,1 13,2 18,6 14,3 15,2 13 7 20 11 ZZO 1010,8 10 60 0,0
18.10.2017 11:00:00 14,7 13,9 14,7 14,4 15,2 7 4 13 7 ZZO 1010,7 19 60 0,0
18.10.2017 10:00:00 12,9 12,4 5,6 14,5 15,2 9 5 12 7 ZZO 1010,9 10 46 0,0
18.10.2017 09:00:00 10,4 9,9 5,2 14,5 15,2 5 3 12 6 ZO 1010,5 2,6 0 0,0
18.10.2017 08:00:00 11,1 10,6 7,5 14,5 15,2 11 6 14 7 ZZO 1010,4 10 0 0,0
18.10.2017 07:00:00 12,0 11,5 9,7 14,5 15,2 8 4 13 7 Z 1010,5 7 0 0,0
18.10.2017 06:00:00 11,8 11,2 6,1 14,6 15,2 5 3 9 5 ZZW 1010,7 8 0 0,2
18.10.2017 05:00:00 11,1 10,5 6,4 14,6 15,2 5 3 9 5 ZW 1011,3 0,4 0 0,0
18.10.2017 04:00:00 12,9 12,1 11,6 14,5 15,2 3 2 17 9 WZW 1011,4 14 0 0,0
18.10.2017 03:00:00 13,9 13,1 13,1 14,6 15,2 12 7 18 10 ZZW 1011,5 6 0 0,0
18.10.2017 02:00:00 13,5 12,7 13,0 14,6 15,2 8 4 16 8 ZZO 1011,7 7 0 0,0
18.10.2017 01:00:00 13,1 12,2 12,4 14,6 15,2 10 5 18 10 ZZO 1012,2 11 0 0,2
18.10.2017 00:00:00 12,7 11,8 11,4 14,6 15,2 9 5 13 7 O 1012,5 10 0 0,0
17.10.2017 23:00:00 12,1 11,2 11,4 14,6 15,2 9 5 20 11 O 1012,9 10 0 0,0
17.10.2017 22:00:00 12,2 11,3 11,6 14,7 15,2 13 7 23 12 O 1012,9 10 0 0,0
17.10.2017 21:00:00 12,2 11,4 11,7 14,7 15,2 15 8 27 15 O 1013,5 10 0 0,0
17.10.2017 20:00:00 12,2 11,6 11,9 14,7 15,2 16 9 24 13 ONO 1013,7 10 0 1,4
17.10.2017 19:00:00 12,2 11,4 11,9 14,7 15,2 16 9 31 17 ONO 1014,1 7 0 1,6
17.10.2017 18:00:00 12,2 11,3 11,6 14,7 15,2 21 11 34 18 ONO 1014,6 7 0 1,0
17.10.2017 17:00:00 11,7 10,8 11,1 14,7 15,2 16 9 31 17 ONO 1015,4 6 0 2,8
17.10.2017 16:00:00 11,5 10,4 11,4 14,8 15,2 18 10 27 15 ONO 1016,1 7 0 0,9
17.10.2017 15:00:00 11,6 10,7 11,6 14,8 15,2 13 7 23 12 NO 1017,0 10 0 0,6
17.10.2017 14:00:00 11,5 10,4 11,0 14,8 15,2 11 6 19 10 NO 1018,6 7 0 1,2
17.10.2017 13:00:00 11,1 9,8 10,9 14,8 15,2 11 6 17 9 O 1019,5 8 0 1,8
17.10.2017 12:00:00 11,5 9,7 10,9 14,9 15,2 9 5 14 7 ZO 1020,6 9 0 1,4
17.10.2017 11:00:00 12,1 9,3 11,6 14,9 15,2 9 5 11 6 O 1020,3 10 0 0,2
17.10.2017 10:00:00 11,9 9,8 9,6 15,0 15,2 4 2 13 7 - 1020,3 10 0 0,0
17.10.2017 09:00:00 11,1 9,5 9,3 15,0 15,2 5 3 11 6 O 1020,1 15 0 0,0
17.10.2017 08:00:00 11,1 9,8 10,1 15,1 15,2 9 5 11 6 OZO 1020,3 10 0 0,0
17.10.2017 07:00:00 10,8 9,9 10,0 15,2 15,2 8 4 11 6 ZO 1020,6 10 0 0,0
17.10.2017 06:00:00 10,4 9,6 6,6 15,2 15,2 7 4 9 5 ZO 1021,0 13 0 0,0
17.10.2017 05:00:00 9,9 9,0 6,4 15,3 15,2 4 2 8 4 ZZO 1021,4 11 0 0,0
17.10.2017 04:00:00 10,2 9,1 5,8 15,4 15,2 8 4 10 5 ZO 1021,7 10 0 0,0
17.10.2017 03:00:00 10,7 9,1 6,8 15,5 15,2 5 3 10 6 ZZO 1022,4 10 0 0,0
17.10.2017 02:00:00 11,2 9,3 7,8 15,6 15,2 8 4 10 6 Z 1022,5 13 0 0,0
17.10.2017 01:00:00 11,5 8,9 6,9 15,7 15,2 5 3 14 7 WZW 1022,5 10 0 0,0
17.10.2017 00:00:00 11,6 8,8 6,9 15,8 15,2 10 5 19 10 ZW 1022,6 17 0 0,0
16.10.2017 23:00:00 11,8 8,8 7,2 15,9 15,2 11 6 23 12 ZW 1022,5 16 0 0,0
16.10.2017 22:00:00 12,7 9,3 9,9 15,9 15,2 16 9 24 13 ZW 1021,9 16 0 0,0
16.10.2017 21:00:00 13,2 9,1 10,6 16,0 15,2 16 9 28 15 ZW 1021,6 15 0 0,0
16.10.2017 20:00:00 13,8 9,4 11,3 16,0 15,1 16 9 39 21 ZW 1020,9 15 0 0,0
16.10.2017 19:00:00 14,9 9,0 13,4 16,0 15,2 25 13 55 30 WZW 1020,0 18 52 0,0
16.10.2017 18:00:00 16,1 8,8 15,9 16,0 15,2 37 20 71 38 WZW 1019,2 10 60 0,0
16.10.2017 17:00:00 16,9 9,6 19,5 16,0 15,2 44 24 70 38 WZW 1018,6 10 58 0,0
16.10.2017 16:00:00 17,3 10,2 20,4 15,9 15,2 39 21 69 37 WZW 1018,4 16 60 0,0
16.10.2017 15:00:00 17,7 10,6 20,2 16,0 15,2 39 21 72 39 ZW 1018,1 10 60 0,0
16.10.2017 14:00:00 17,8 11,4 20,4 15,9 15,1 35 19 65 35 ZW 1017,5 10 60 0,0
16.10.2017 13:00:00 17,3 11,1 17,9 15,9 15,1 34 18 64 34 ZW 1017,0 10 55 0,0
16.10.2017 12:00:00 16,9 12,6 16,9 15,9 15,1 37 20 64 34 ZW 1016,0 13 23 0,0
16.10.2017 11:00:00 16,9 12,6 16,2 15,9 15,1 32 17 60 32 ZZW 1014,9 11 8 0,0
16.10.2017 10:00:00 17,4 14,1 17,1 16,0 15,2 37 20 55 30 ZZW 1014,0 10 0 0,0
16.10.2017 09:00:00 18,8 14,9 18,2 16,0 15,2 31 17 58 31 ZZW 1013,1 10 0 0,0
16.10.2017 08:00:00 19,3 14,8 18,5 16,0 15,1 34 18 53 29 Z 1012,1 14 0 0,0
16.10.2017 07:00:00 19,8 14,8 18,6 16,0 15,1 31 17 45 25 Z 1011,7 26 0 0,0
16.10.2017 06:00:00 20,0 14,8 18,9 16,0 15,1 31 17 51 28 ZZO 1010,5 10 0 0,0
16.10.2017 05:00:00 19,8 15,0 18,1 16,0 15,1 29 16 42 23 ZZO 1011,0 10 0 0,0
16.10.2017 04:00:00 19,5 14,9 18,2 16,0 15,1 21 11 37 20 ZZO 1011,9 10 0 0,0
16.10.2017 03:00:00 19,6 14,4 16,8 16,0 15,1 31 17 52 28 Z 1015,2 29 0 0,0
16.10.2017 02:00:00 18,1 13,8 16,1 16,0 15,1 21 11 43 23 ZZO 1014,5 10 0 0,0
16.10.2017 01:00:00 17,8 14,3 16,6 16,0 15,1 29 16 45 24 ZZO 1015,0 20 0 0,0
16.10.2017 00:00:00 17,6 14,5 16,3 16,1 15,1 15 8 35 19 ZZO 1015,2 10 0 0,0
15.10.2017 23:00:00 17,7 14,6 16,5 16,1 15,1 24 13 37 20 ZZO 1015,7 10 0 0,0
15.10.2017 22:00:00 18,2 14,7 17,3 16,0 15,1 26 14 39 21 ZZO 1015,9 17 0 0,0
15.10.2017 21:00:00 18,6 14,5 17,2 16,0 15,1 15 8 29 15 ZZO 1015,9 10 0 0,0
15.10.2017 20:00:00 18,7 14,2 17,3 16,0 15,1 19 11 38 20 Z 1015,9 16 0 0,0
15.10.2017 19:00:00 20,1 14,5 19,2 15,9 15,1 22 12 37 20 Z 1015,7 10 0 0,0
15.10.2017 18:00:00 20,5 14,8 20,0 15,8 15,1 28 15 41 22 Z 1015,4 10 0 0,0
15.10.2017 17:00:00 20,9 15,7 20,8 15,7 15,1 28 15 52 28 Z 1015,6 10 11 0,0
15.10.2017 16:00:00 22,2 15,3 22,5 15,6 15,1 31 17 48 26 Z 1015,7 10 54 0,0
15.10.2017 15:00:00 21,7 14,3 22,7 15,6 15,1 29 15 48 26 Z 1016,1 18 50 0,0
15.10.2017 14:00:00 21,8 12,9 23,9 15,5 15,1 28 15 41 22 Z 1016,3 10 58 0,0
15.10.2017 13:00:00 20,5 13,7 21,7 15,6 15,1 22 12 34 18 Z 1016,7 14 60 0,0
15.10.2017 12:00:00 17,9 13,6 19,5 15,6 15,1 22 12 38 21 ZZO 1017,4 8 60 0,0
15.10.2017 11:00:00 16,5 13,4 16,8 15,6 15,1 21 11 30 16 Z 1017,8 10 60 0,0
15.10.2017 10:00:00 15,2 13,4 14,1 15,6 15,1 20 11 34 19 Z 1018,1 9 28 0,0
15.10.2017 09:00:00 14,7 12,9 14,2 15,7 15,1 23 13 38 20 Z 1017,9 10 0 0,0
15.10.2017 08:00:00 15,0 13,0 14,5 15,7 15,1 22 12 35 19 Z 1018,1 10 0 0,0
15.10.2017 07:00:00 15,0 12,9 14,5 15,7 15,1 20 11 36 19 Z 1018,3 11 0 0,0
15.10.2017 06:00:00 15,0 12,9 14,6 15,8 15,1 21 11 33 18 ZZW 1018,4 10 0 0,0
15.10.2017 05:00:00 15,0 13,0 14,6 15,8 15,1 21 11 36 20 ZZW 1018,6 10 0 0,0
15.10.2017 04:00:00 15,2 13,7 14,9 15,8 15,1 21 12 35 19 ZZW 1019,1 8 0 0,0
15.10.2017 03:00:00 15,6 14,5 15,1 15,9 15,1 18 10 43 23 ZZW 1019,5 7 0 0,0
15.10.2017 02:00:00 15,9 14,9 15,5 15,9 15,1 31 17 46 25 ZZW 1019,5 6 0 0,0
15.10.2017 01:00:00 15,9 14,6 15,5 15,9 15,1 28 15 46 25 Z 1019,4 5 0 0,0
15.10.2017 00:00:00 16,1 14,5 14,7 16,0 15,1 24 13 39 21 Z 1019,5 6 0 0,0
14.10.2017 23:00:00 15,5 13,3 14,0 16,0 15,1 18 10 35 19 Z 1019,9 10 0 0,0
14.10.2017 22:00:00 16,1 12,5 10,3 16,0 15,0 16 9 24 13 Z 1020,4 27 0 0,0
14.10.2017 21:00:00 15,6 12,2 9,9 16,0 15,1 11 6 14 7 ZZO 1020,6 10 0 0,0
14.10.2017 20:00:00 16,4 12,6 10,9 15,9 15,1 9 5 14 8 ZZO 1020,8 10 3 0,0
14.10.2017 19:00:00 20,0 13,5 17,3 15,8 15,1 8 5 14 8 Z 1020,9 38 60 0,0
14.10.2017 18:00:00 22,1 14,2 23,0 15,7 15,0 9 5 18 10 Z 1021,2 10 60 0,0
14.10.2017 17:00:00 21,8 14,7 25,7 15,6 15,0 14 8 21 11 ZZO 1021,8 20 60 0,0
14.10.2017 16:00:00 21,4 14,8 25,3 15,5 15,1 13 7 28 15 ZZO 1022,5 10 60 0,0
14.10.2017 15:00:00 21,1 13,8 25,8 15,5 15,0 16 9 27 14 ZZO 1022,9 28 60 0,0
14.10.2017 14:00:00 20,2 13,6 25,1 15,4 15,0 11 6 19 10 ZO 1023,7 20 60 0,0
14.10.2017 13:00:00 18,8 13,4 23,1 15,4 15,0 9 5 18 10 OZO 1024,8 10 60 0,0
14.10.2017 12:00:00 17,0 12,9 20,5 15,5 15,0 10 5 15 8 NO 1025,4 20 60 0,0
14.10.2017 11:00:00 15,8 13,5 16,7 15,5 15,0 8 4 14 7 ZO 1025,3 11 60 0,0
14.10.2017 10:00:00 14,5 13,9 13,9 15,5 15,1 5 3 11 6 OZO 1025,4 6 15 0,0
14.10.2017 09:00:00 13,8 13,2 13,6 15,5 15,0 4 2 8 4 OZO 1025,4 5 0 0,0

tt = temperatuur
td = dauwpunt
tt 5cm = temperatuur 5cm
tt -20cm = temperatuur -20cm
tt -100cm = temperatuur -100cm
ff = windsnelheid
fx = windstoten
dd = windrichting
ppp = luchtdruk
vv = zicht
sd = Zonneschijnduur
rr = neerslag

Weerstations in de omgeving